Simultaneous Nadir Overpasses (SNOs) Predictions

Prediction of SNOs near US between AQUA and NPP Satellite Orbit:

Table of predicted SNOs near US for the next 10.0 days since TLE Epoch: 11/30/2012
Index Date (AQUA) Time (AQUA) AQUA Lat,Lon Date (NPP) Time (NPP) NPP Lat,Lon Distance(km) Time Diff (sec)
1 12/01/2012 19:06:11 50.00, -92.59 12/01/2012 18:59:12 49.66, -94.40 135.25 419
2 12/01/2012 20:45:04 49.98,-117.30 12/01/2012 20:40:40 49.55,-119.73 180.48 264
3 12/07/2012 07:19:22 47.86, -76.90 12/07/2012 07:18:46 48.25, -79.07 167.10 36
4 12/07/2012 08:57:41 49.89,-100.80 12/07/2012 08:59:38 50.42,-103.49 201.11 117
5 12/09/2012 18:17:04 49.96, -80.29 12/09/2012 18:08:44 50.75, -82.20 161.64 500
6 12/09/2012 19:55:58 50.00,-105.03 12/09/2012 19:49:55 49.67,-107.08 151.47 363
7 12/09/2012 21:31:01 36.27,-124.99 12/09/2012 21:27:26 35.83,-127.43 224.45 215




NCC Satellite Simultaneous Nadir Overpasses (SNOs) Prediction Service
